Location: Montreal
(45.5000°N, 73.5833°W)
Time: 22:01:57
(UTC-04:00)

Envisat - Visible Passes

Search period start: 19 October 2019 00:00
Search period end: 29 October 2019 00:00
Orbit: 764 x 766 km, 98.1° (Epoch: 19 October)

Date Brightness Start Highest point End Pass type
(mag) Time Alt. Az. Time Alt. Az. Time Alt. Az.
19 Oct 3.4 19:08:54 10° S 19:13:56 67° WSW 19:19:02 10° NNW visible
20 Oct 3.1 18:32:14 10° SSE 18:37:13 59° ENE 18:42:13 10° N visible
20 Oct 5.7 20:13:05 10° SW 20:16:37 19° W 20:20:11 10° NW visible
21 Oct 6.1 06:40:00 10° NE 06:43:18 17° E 06:46:35 10° SE visible
21 Oct 4.5 19:34:49 10° SSW 19:39:33 39° W 19:44:19 10° NNW visible
22 Oct 3.1 18:57:35 10° SSE 19:02:40 84° WSW 19:07:47 10° NNW visible
22 Oct 6.3 20:41:24 10° W 20:42:29 11° W 20:43:32 10° WNW visible
23 Oct 3.3 18:21:09 10° SE 18:26:00 47° ENE 18:30:51 10° N visible
23 Oct 5.4 20:01:13 10° SW 20:05:15 23° W 20:09:17 10° NW visible
24 Oct 6.3 06:29:22 10° ENE 06:31:53 14° E 06:34:24 10° ESE visible
24 Oct 4.0 19:23:20 10° S 19:28:13 49° W 19:33:10 10° NNW visible
25 Oct 2.9 18:46:20 10° SSE 18:51:25 79° ENE 18:56:31 10° N visible
25 Oct 6.1 20:28:31 10° WSW 20:31:02 14° W 20:33:34 10° WNW visible
26 Oct 5.0 19:49:30 10° SSW 19:53:53 29° W 19:58:17 10° NW visible
27 Oct 6.7 06:19:28 10° ENE 06:20:28 11° E 06:21:27 10° E visible
27 Oct 3.5 19:11:54 10° S 19:16:55 62° W 19:21:59 10° NNW visible
28 Oct 3.0 18:35:10 10° SSE 18:40:10 64° ENE 18:45:12 10° N visible
28 Oct 5.8 20:16:20 10° SW 20:19:38 17° W 20:22:58 10° NW visible
